Time,TemperatureF,DewpointF,PressureIn,WindDirection,WindDirectionDegrees,WindSpeedMPH,WindSpeedGustMPH,Humidity,HourlyPrecipIn,Conditions,Clouds,dailyrainin,SolarRadiationWatts/m^2,SoftwareType,DateUTC
2013-09-22 00:02:00,-999.0,-99.9,-100.00,NNW,331,3.0,9.0,-999,-99.99,,,-99.99,0.000000,,2013-09-22 04:02:00,
2013-09-22 00:12:00,41.0,39.0,-100.00,NW,321,3.0,9.0,94,0.00,,,0.03,0.000000,,2013-09-22 04:12:00,
2013-09-22 00:44:00,41.0,39.0,-100.00,NW,321,3.0,9.0,94,0.00,,,0.03,0.000000,,2013-09-22 04:44:00,
2013-09-22 00:54:00,41.0,39.0,-100.00,NW,321,3.0,9.0,94,0.00,,,0.03,0.000000,,2013-09-22 04:54:00,
2013-09-22 01:03:00,41.0,39.0,-100.00,NW,321,3.0,9.0,94,0.00,,,0.03,0.000000,,2013-09-22 05:03:00,
2013-09-22 01:12:00,42.0,40.0,-100.00,NNW,328,3.0,6.0,91,0.00,,,0.03,0.000000,,2013-09-22 05:12:00,
2013-09-22 01:43:00,42.0,40.0,-100.00,NNW,328,3.0,6.0,91,0.00,,,0.03,0.000000,,2013-09-22 05:43:00,
2013-09-22 01:53:00,42.0,40.0,-100.00,NNW,328,3.0,6.0,91,0.00,,,0.03,0.000000,,2013-09-22 05:53:00,
2013-09-22 02:02:00,42.0,40.0,-100.00,NNW,328,3.0,6.0,91,0.00,,,0.03,0.000000,,2013-09-22 06:02:00,
2013-09-22 02:42:00,42.0,39.0,-100.00,NW,310,3.0,6.0,88,0.00,,,0.03,0.000000,,2013-09-22 06:42:00,
2013-09-22 02:52:00,42.0,39.0,-100.00,NW,310,3.0,6.0,88,0.00,,,0.03,0.000000,,2013-09-22 06:52:00,
2013-09-22 03:02:00,42.0,39.0,-100.00,NW,310,3.0,6.0,88,0.00,,,0.03,0.000000,,2013-09-22 07:02:00,
2013-09-22 03:11:00,42.0,39.0,-100.00,NW,310,3.0,6.0,88,0.00,,,0.03,0.000000,,2013-09-22 07:11:00,
2013-09-22 03:12:00,42.0,39.0,-100.00,NNW,335,2.0,5.0,89,0.00,,,-99.99,0.000000,,2013-09-22 07:12:00,
2013-09-22 03:42:00,42.0,39.0,-100.00,NNW,335,2.0,5.0,89,0.00,,,-99.99,0.000000,,2013-09-22 07:42:00,
2013-09-22 03:52:00,42.0,39.0,-100.00,NNW,335,2.0,5.0,89,0.00,,,-99.99,0.000000,,2013-09-22 07:52:00,
2013-09-22 04:04:00,42.0,39.0,-100.00,NNW,335,2.0,5.0,89,0.00,,,-99.99,0.000000,,2013-09-22 08:04:00,
2013-09-22 04:42:00,42.0,39.0,-100.00,NW,325,3.0,5.0,88,0.00,,,0.03,0.000000,,2013-09-22 08:42:00,
2013-09-22 04:52:00,42.0,39.0,-100.00,NW,325,3.0,5.0,88,0.00,,,0.03,0.000000,,2013-09-22 08:52:00,
2013-09-22 05:02:00,42.0,39.0,-100.00,NW,325,3.0,5.0,88,0.00,,,0.03,0.000000,,2013-09-22 09:02:00,
2013-09-22 05:11:00,42.0,39.0,-100.00,NW,325,3.0,5.0,88,0.00,,,0.03,0.000000,,2013-09-22 09:11:00,
2013-09-22 05:12:00,42.0,39.0,-100.00,WNW,299,2.0,5.0,90,0.00,,,0.03,0.000000,,2013-09-22 09:12:00,
2013-09-22 05:43:00,42.0,39.0,-100.00,WNW,299,2.0,5.0,90,0.00,,,0.03,0.000000,,2013-09-22 09:43:00,
2013-09-22 05:54:00,42.0,39.0,-100.00,WNW,299,2.0,5.0,90,0.00,,,0.03,0.000000,,2013-09-22 09:54:00,
2013-09-22 06:03:00,42.0,39.0,-100.00,WNW,299,2.0,5.0,90,0.00,,,0.03,0.000000,,2013-09-22 10:03:00,
2013-09-22 06:12:00,42.0,39.0,-100.00,WNW,296,1.0,6.0,89,0.00,,,0.00,0.000000,,2013-09-22 10:12:00,
2013-09-22 06:44:00,42.0,39.0,-100.00,WNW,296,1.0,6.0,89,0.00,,,0.00,0.000000,,2013-09-22 10:44:00,
2013-09-22 06:53:00,42.0,39.0,-100.00,WNW,296,1.0,6.0,89,0.00,,,0.00,0.000000,,2013-09-22 10:53:00,
2013-09-22 07:12:00,42.0,38.0,-100.00,WNW,288,4.0,6.0,87,0.00,,,0.00,0.000000,,2013-09-22 11:12:00,
2013-09-22 07:42:00,42.0,38.0,-100.00,WNW,288,4.0,6.0,87,0.00,,,0.00,0.000000,,2013-09-22 11:42:00,
2013-09-22 07:52:00,42.0,38.0,-100.00,WNW,288,4.0,6.0,87,0.00,,,0.00,0.000000,,2013-09-22 11:52:00,
2013-09-22 08:02:00,42.0,38.0,-100.00,WNW,288,4.0,6.0,87,0.00,,,0.00,0.000000,,2013-09-22 12:02:00,
2013-09-22 08:12:00,42.0,38.0,-100.00,WNW,296,2.0,5.0,87,0.00,,,0.00,4.000000,,2013-09-22 12:12:00,
2013-09-22 08:42:00,42.0,38.0,-100.00,WNW,296,2.0,5.0,87,0.00,,,0.00,4.000000,,2013-09-22 12:42:00,
2013-09-22 08:52:00,42.0,38.0,-100.00,WNW,296,2.0,5.0,87,0.00,,,0.00,4.000000,,2013-09-22 12:52:00,
2013-09-22 09:02:00,42.0,38.0,-100.00,WNW,296,2.0,5.0,87,0.00,,,0.00,4.000000,,2013-09-22 13:02:00,
2013-09-22 09:42:00,44.0,39.0,-100.00,NW,316,3.0,5.0,84,0.00,,,0.00,36.000000,,2013-09-22 13:42:00,
2013-09-22 09:52:00,44.0,39.0,-100.00,NW,316,3.0,5.0,84,0.00,,,0.00,36.000000,,2013-09-22 13:52:00,
2013-09-22 10:02:00,44.0,39.0,-100.00,NW,316,3.0,5.0,84,0.00,,,0.00,36.000000,,2013-09-22 14:02:00,
2013-09-22 10:11:00,44.0,39.0,-100.00,NW,316,3.0,5.0,84,0.00,,,0.00,36.000000,,2013-09-22 14:11:00,
2013-09-22 10:12:00,46.0,40.0,-100.00,NE,46,2.0,6.0,80,0.00,,,0.00,112.000000,,2013-09-22 14:12:00,
2013-09-22 10:42:00,46.0,40.0,-100.00,NE,46,2.0,6.0,80,0.00,,,0.00,112.000000,,2013-09-22 14:42:00,
2013-09-22 10:52:00,46.0,40.0,-100.00,NE,46,2.0,6.0,80,0.00,,,0.00,112.000000,,2013-09-22 14:52:00,
2013-09-22 11:02:00,46.0,40.0,-100.00,NE,46,2.0,6.0,80,0.00,,,0.00,112.000000,,2013-09-22 15:02:00,
2013-09-22 11:12:00,46.0,42.0,-100.00,East,85,3.0,7.0,85,0.00,,,0.00,170.000000,,2013-09-22 15:12:00,
2013-09-22 11:44:00,46.0,42.0,-100.00,East,85,3.0,7.0,85,0.00,,,0.00,170.000000,,2013-09-22 15:44:00,
2013-09-22 11:55:00,46.0,42.0,-100.00,East,85,3.0,7.0,85,0.00,,,0.00,170.000000,,2013-09-22 15:55:00,
2013-09-22 12:04:00,46.0,42.0,-100.00,East,85,3.0,7.0,85,0.00,,,0.00,170.000000,,2013-09-22 16:04:00,
2013-09-22 12:12:00,48.0,40.0,-100.00,East,88,3.0,6.0,73,0.00,,,0.00,230.000000,,2013-09-22 16:12:00,
2013-09-22 12:43:00,48.0,40.0,-100.00,East,88,3.0,6.0,73,0.00,,,0.00,230.000000,,2013-09-22 16:43:00,
2013-09-22 12:54:00,48.0,40.0,-100.00,East,88,3.0,6.0,73,0.00,,,0.00,230.000000,,2013-09-22 16:54:00,
2013-09-22 13:03:00,48.0,40.0,-100.00,East,88,3.0,6.0,73,0.00,,,0.00,230.000000,,2013-09-22 17:03:00,
2013-09-22 13:12:00,50.0,37.0,-100.00,North,3,4.0,8.0,61,0.00,,,0.00,313.000000,,2013-09-22 17:12:00,
2013-09-22 13:43:00,50.0,37.0,-100.00,North,3,4.0,8.0,61,0.00,,,0.00,313.000000,,2013-09-22 17:43:00,
2013-09-22 13:53:00,50.0,37.0,-100.00,North,3,4.0,8.0,61,0.00,,,0.00,313.000000,,2013-09-22 17:53:00,
2013-09-22 14:02:00,50.0,37.0,-100.00,North,3,4.0,8.0,61,0.00,,,0.00,313.000000,,2013-09-22 18:02:00,
2013-09-22 14:42:00,50.0,38.0,-100.00,NNE,17,3.0,7.0,63,0.00,,,0.00,294.000000,,2013-09-22 18:42:00,
2013-09-22 14:52:00,50.0,38.0,-100.00,NNE,17,3.0,7.0,63,0.00,,,0.00,294.000000,,2013-09-22 18:52:00,
2013-09-22 15:02:00,50.0,38.0,-100.00,NNE,17,3.0,7.0,63,0.00,,,0.00,294.000000,,2013-09-22 19:02:00,
2013-09-22 15:11:00,50.0,38.0,-100.00,NNE,17,3.0,7.0,63,0.00,,,0.00,294.000000,,2013-09-22 19:11:00,
2013-09-22 15:12:00,50.0,38.0,-100.00,East,83,2.0,7.0,63,0.00,,,0.00,326.000000,,2013-09-22 19:12:00,
2013-09-22 15:42:00,50.0,38.0,-100.00,East,83,2.0,7.0,63,0.00,,,0.00,326.000000,,2013-09-22 19:42:00,
2013-09-22 15:52:00,50.0,38.0,-100.00,East,83,2.0,7.0,63,0.00,,,0.00,326.000000,,2013-09-22 19:52:00,
2013-09-22 16:03:00,50.0,38.0,-100.00,East,83,2.0,7.0,63,0.00,,,0.00,326.000000,,2013-09-22 20:03:00,
2013-09-22 16:12:00,50.0,39.0,-100.00,East,101,3.0,6.0,65,0.00,,,0.00,246.000000,,2013-09-22 20:12:00,
2013-09-22 16:42:00,50.0,39.0,-100.00,East,101,3.0,6.0,65,0.00,,,0.00,246.000000,,2013-09-22 20:42:00,
2013-09-22 16:52:00,50.0,39.0,-100.00,East,101,3.0,6.0,65,0.00,,,0.00,246.000000,,2013-09-22 20:52:00,
2013-09-22 17:02:00,50.0,39.0,-100.00,East,101,3.0,6.0,65,0.00,,,0.00,246.000000,,2013-09-22 21:02:00,
2013-09-22 17:12:00,50.0,39.0,-100.00,East,88,2.0,6.0,67,0.00,,,0.00,188.000000,,2013-09-22 21:12:00,
2013-09-22 17:45:00,50.0,39.0,-100.00,East,88,2.0,6.0,67,0.00,,,0.00,188.000000,,2013-09-22 21:45:00,
2013-09-22 17:54:00,50.0,39.0,-100.00,East,88,2.0,6.0,67,0.00,,,0.00,188.000000,,2013-09-22 21:54:00,
2013-09-22 18:04:00,50.0,39.0,-100.00,East,88,2.0,6.0,67,0.00,,,0.00,188.000000,,2013-09-22 22:04:00,
2013-09-22 18:12:00,49.0,39.0,-100.00,NE,53,2.0,7.0,67,0.00,,,0.00,140.000000,,2013-09-22 22:12:00,
2013-09-22 18:43:00,49.0,39.0,-100.00,NE,53,2.0,7.0,67,0.00,,,0.00,140.000000,,2013-09-22 22:43:00,
2013-09-22 18:54:00,49.0,39.0,-100.00,NE,53,2.0,7.0,67,0.00,,,0.00,140.000000,,2013-09-22 22:54:00,
2013-09-22 19:03:00,49.0,39.0,-100.00,NE,53,2.0,7.0,67,0.00,,,0.00,140.000000,,2013-09-22 23:03:00,
2013-09-22 19:12:00,48.0,39.0,-100.00,ESE,113,1.0,5.0,72,0.00,,,0.00,73.000000,,2013-09-22 23:12:00,
2013-09-22 19:43:00,48.0,39.0,-100.00,ESE,113,1.0,5.0,72,0.00,,,0.00,73.000000,,2013-09-22 23:43:00,
2013-09-22 19:52:00,48.0,39.0,-100.00,ESE,113,1.0,5.0,72,0.00,,,0.00,73.000000,,2013-09-22 23:52:00,
2013-09-22 20:01:00,48.0,39.0,-100.00,ESE,113,1.0,5.0,72,0.00,,,0.00,73.000000,,2013-09-23 00:01:00,
2013-09-22 20:12:00,44.0,39.0,-100.00,ESE,102,2.0,4.0,84,0.00,,,0.00,16.000000,,2013-09-23 00:12:00,
2013-09-22 20:42:00,44.0,39.0,-100.00,ESE,102,2.0,4.0,84,0.00,,,0.00,16.000000,,2013-09-23 00:42:00,
2013-09-22 20:53:00,44.0,39.0,-100.00,ESE,102,2.0,4.0,84,0.00,,,0.00,16.000000,,2013-09-23 00:53:00,
2013-09-22 21:01:00,44.0,39.0,-100.00,ESE,102,2.0,4.0,84,0.00,,,0.00,16.000000,,2013-09-23 01:01:00,
2013-09-22 21:43:00,39.0,37.0,-100.00,SE,134,1.0,3.0,94,0.00,,,0.00,0.000000,,2013-09-23 01:43:00,
2013-09-22 21:52:00,39.0,37.0,-100.00,SE,134,1.0,3.0,94,0.00,,,0.00,0.000000,,2013-09-23 01:52:00,
2013-09-22 22:02:00,39.0,37.0,-100.00,SE,134,1.0,3.0,94,0.00,,,0.00,0.000000,,2013-09-23 02:02:00,
2013-09-22 22:11:00,39.0,37.0,-100.00,SE,134,1.0,3.0,94,0.00,,,0.00,0.000000,,2013-09-23 02:11:00,
2013-09-22 22:12:00,37.0,36.0,-100.00,SE,127,0.0,4.0,96,0.00,,,0.00,0.000000,,2013-09-23 02:12:00,
2013-09-22 22:42:00,37.0,36.0,-100.00,SE,127,0.0,4.0,96,0.00,,,0.00,0.000000,,2013-09-23 02:42:00,
2013-09-22 22:52:00,37.0,36.0,-100.00,SE,127,0.0,4.0,96,0.00,,,0.00,0.000000,,2013-09-23 02:52:00,
2013-09-22 23:03:00,37.0,36.0,-100.00,SE,127,0.0,4.0,96,0.00,,,0.00,0.000000,,2013-09-23 03:03:00,
2013-09-22 23:12:00,37.0,36.0,-100.00,SSE,156,0.0,4.0,97,0.00,,,0.00,0.000000,,2013-09-23 03:12:00,
2013-09-22 23:44:00,37.0,36.0,-100.00,SSE,156,0.0,4.0,97,0.00,,,0.00,0.000000,,2013-09-23 03:44:00,
2013-09-22 23:54:00,37.0,36.0,-100.00,SSE,156,0.0,4.0,97,0.00,,,0.00,0.000000,,2013-09-23 03:54:00,